�������l�o���
Date,Time,MP-1(��Sv/h),MP-2(��Sv/h),MP-3(��Sv/h),MP-4(��Sv/h),MP-5(��Sv/h),MP-6(��Sv/h),MP-7(��Sv/h),MP-8(��Sv/h),����,����(m/s),���J
2018/09/27,00:00,0.776,1.162,0.819,1.451,1.045,0.456,0.801,0.760,�k��,8.4,�L
2018/09/27,00:10,0.777,1.160,0.818,1.450,1.045,0.457,0.801,0.760,�k��,8.5,�L
2018/09/27,00:20,0.775,1.162,0.820,1.451,1.042,0.455,0.801,0.760,�k��,9.7,�L
2018/09/27,00:30,0.778,1.162,0.816,1.453,1.044,0.457,0.798,0.760,�k��,9.0,�L
2018/09/27,00:40,0.772,1.162,0.819,1.451,1.042,0.457,0.799,0.760,�k��,8.4,�L
2018/09/27,00:50,0.774,1.159,0.819,1.451,1.042,0.458,0.802,0.760,�k�k��,7.9,�L
2018/09/27,01:00,0.775,1.158,0.817,1.452,1.041,0.457,0.800,0.761,�k��,7.8,�L
2018/09/27,01:10,0.775,1.158,0.818,1.451,1.040,0.458,0.801,0.761,�k�k��,8.9,�L
2018/09/27,01:20,0.775,1.158,0.819,1.450,1.043,0.458,0.799,0.762,�k��,9.1,�L
2018/09/27,01:30,0.776,1.157,0.818,1.452,1.041,0.458,0.801,0.762,�k��,10.3,�L
2018/09/27,01:40,0.775,1.158,0.819,1.450,1.042,0.458,0.800,0.761,�k��,9.9,�L
2018/09/27,01:50,0.776,1.160,0.818,1.452,1.044,0.456,0.799,0.760,�k��,9.9,�L
2018/09/27,02:00,0.774,1.161,0.816,1.450,1.042,0.458,0.799,0.762,�k��,9.0,�L
2018/09/27,02:10,0.776,1.160,0.814,1.450,1.040,0.458,0.799,0.760,�k��,8.5,�L
2018/09/27,02:20,0.775,1.156,0.815,1.451,1.039,0.456,0.799,0.760,�k��,8.5,�L
2018/09/27,02:30,0.775,1.154,0.814,1.448,1.037,0.457,0.797,0.759,�k��,9.0,�L
2018/09/27,02:40,0.774,1.152,0.815,1.447,1.035,0.457,0.798,0.758,�k��,9.1,�L
2018/09/27,02:50,0.775,1.151,0.813,1.445,1.037,0.458,0.797,0.759,�k�k��,8.1,�L
2018/09/27,03:00,0.772,1.153,0.816,1.448,1.035,0.458,0.798,0.760,�k��,8.2,�L
2018/09/27,03:10,0.775,1.150,0.814,1.446,1.036,0.457,0.795,0.760,�k�k��,9.0,�L
2018/09/27,03:20,0.774,1.153,0.815,1.445,1.037,0.458,0.797,0.762,�k��,8.9,�L
2018/09/27,03:30,0.775,1.154,0.814,1.448,1.036,0.457,0.797,0.761,�k�k��,9.6,�L
2018/09/27,03:40,0.774,1.154,0.813,1.446,1.037,0.458,0.797,0.761,�k�k��,9.4,�L
2018/09/27,03:50,0.774,1.154,0.815,1.447,1.038,0.457,0.798,0.763,�k�k��,10.0,�L
2018/09/27,04:00,0.776,1.156,0.814,1.448,1.037,0.458,0.800,0.761,�k�k��,9.6,�L
2018/09/27,04:10,0.774,1.154,0.813,1.448,1.039,0.456,0.798,0.761,�k,7.0,�L
2018/09/27,04:20,0.774,1.157,0.816,1.450,1.037,0.456,0.797,0.762,�k�k��,6.7,�L
2018/09/27,04:30,0.770,1.153,0.813,1.448,1.037,0.457,0.797,0.759,�k,6.4,�L
2018/09/27,04:40,0.770,1.150,0.811,1.444,1.036,0.455,0.796,0.759,�k�k��,5.3,�L
2018/09/27,04:50,0.772,1.148,0.811,1.446,1.034,0.453,0.795,0.757,�k�k��,6.8,�L
2018/09/27,05:00,0.770,1.145,0.810,1.445,1.032,0.455,0.793,0.756,�k�k��,6.9,�L
2018/09/27,05:10,0.767,1.145,0.808,1.441,1.031,0.453,0.793,0.755,�k�k��,6.3,�L
2018/09/27,05:20,0.767,1.144,0.808,1.440,1.027,0.455,0.793,0.754,�k�k��,7.4,�L
2018/09/27,05:30,0.765,1.140,0.807,1.439,1.026,0.454,0.791,0.756,�k�k��,7.4,�L
2018/09/27,05:40,0.766,1.138,0.806,1.434,1.026,0.453,0.793,0.754,�k�k��,8.5,�L
2018/09/27,05:50,0.765,1.137,0.807,1.439,1.024,0.453,0.792,0.756,�k�k��,7.8,�L
2018/09/27,06:00,0.767,1.139,0.806,1.438,1.026,0.452,0.792,0.753,�k�k��,8.0,�L
2018/09/27,06:10,0.762,1.137,0.805,1.439,1.024,0.453,0.794,0.755,�k��,6.2,�L
2018/09/27,06:20,0.764,1.137,0.804,1.437,1.025,0.453,0.792,0.754,�k��,5.7,�L
2018/09/27,06:30,0.764,1.136,0.803,1.433,1.022,0.451,0.790,0.753,�k��,6.7,�L
2018/09/27,06:40,0.761,1.131,0.804,1.433,1.022,0.453,0.790,0.752,�k��,8.0,�L
2018/09/27,06:50,0.762,1.130,0.804,1.430,1.020,0.454,0.789,0.754,�k�k��,8.2,�L
2018/09/27,07:00,0.759,1.125,0.801,1.428,1.018,0.453,0.787,0.751,�k�k��,7.9,�L
2018/09/27,07:10,0.756,1.122,0.800,1.422,1.015,0.451,0.789,0.748,�k��,7.5,�L
2018/09/27,07:20,0.756,1.119,0.797,1.418,1.015,0.450,0.786,0.749,�k�k��,6.2,�L
2018/09/27,07:30,0.755,1.119,0.800,1.421,1.012,0.450,0.787,0.749,�k�k��,6.9,�L
2018/09/27,07:40,0.757,1.121,0.799,1.419,1.012,0.451,0.787,0.749,�k�k��,5.8,�L
2018/09/27,07:50,0.759,1.120,0.799,1.418,1.017,0.450,0.786,0.750,�k�k��,6.8,�L
2018/09/27,08:00,0.758,1.123,0.800,1.422,1.013,0.451,0.786,0.749,�k��,8.0,�L
2018/09/27,08:10,0.759,1.123,0.800,1.419,1.016,0.451,0.786,0.751,�k�k��,7.5,�L
2018/09/27,08:20,0.760,1.125,0.799,1.422,1.017,0.451,0.787,0.749,�k��,8.2,�L
2018/09/27,08:30,0.760,1.125,0.798,1.421,1.016,0.451,0.788,0.751,�k��,8.3,�L
2018/09/27,08:40,0.758,1.125,0.799,1.423,1.017,0.451,0.787,0.752,�k��,7.6,�L
2018/09/27,08:50,0.759,1.127,0.800,1.420,1.018,0.450,0.789,0.750,�k�k��,8.9,�L
2018/09/27,09:00,0.757,1.125,0.799,1.420,1.017,0.451,0.789,0.751,�k�k��,8.0,�L
2018/09/27,09:10,0.760,1.123,0.799,1.422,1.017,0.449,0.788,0.749,�k��,6.9,�L
2018/09/27,09:20,0.760,1.120,0.797,1.422,1.015,0.452,0.786,0.753,�k�k��,7.5,�L
2018/09/27,09:30,0.758,1.118,0.797,1.417,1.011,0.451,0.786,0.749,�k�k��,7.6,�L
2018/09/27,09:40,0.760,1.114,0.796,1.418,1.012,0.452,0.786,0.751,�k��,6.9,�L
2018/09/27,09:50,0.760,1.115,0.798,1.418,1.014,0.451,0.789,0.749,�k�k��,7.4,�L
2018/09/27,10:00,0.758,1.115,0.797,1.417,1.013,0.452,0.786,0.750,�k�k��,7.1,�L
2018/09/27,10:10,0.756,1.110,0.796,1.413,1.009,0.451,0.785,0.748,�k�k��,6.4,�L
2018/09/27,10:20,0.756,1.107,0.796,1.409,1.008,0.450,0.786,0.749,�k�k��,6.1,�L
2018/09/27,10:30,0.758,1.113,0.796,1.412,1.007,0.451,0.787,0.749,�k�k��,6.2,�L
2018/09/27,10:40,0.756,1.113,0.797,1.412,1.007,0.450,0.784,0.748,�k�k��,6.2,�L
2018/09/27,10:50,0.754,1.104,0.794,1.408,1.004,0.451,0.783,0.748,�k�k��,6.7,�L
2018/09/27,11:00,0.753,1.100,0.793,1.400,0.998,0.450,0.785,0.747,�k�k��,7.2,�L
2018/09/27,11:10,0.751,1.100,0.793,1.399,1.000,0.450,0.782,0.745,�k�k��,7.5,�L
2018/09/27,11:20,0.753,1.101,0.794,1.400,0.997,0.448,0.784,0.745,�k�k��,5.7,�L
2018/09/27,11:30,0.752,1.104,0.794,1.399,1.001,0.448,0.784,0.745,�k�k��,5.2,�L
2018/09/27,11:40,0.752,1.102,0.792,1.397,0.996,0.450,0.783,0.745,�k�k��,6.0,�L
2018/09/27,11:50,0.754,1.102,0.793,1.396,0.996,0.450,0.781,0.744,�k�k��,6.7,�L
2018/09/27,12:00,0.751,1.100,0.794,1.395,0.996,0.450,0.781,0.746,�k��,6.7,�L
2018/09/27,12:10,0.752,1.104,0.795,1.398,0.997,0.448,0.781,0.746,�k��,6.2,�L
2018/09/27,12:20,0.750,1.103,0.795,1.398,0.996,0.448,0.783,0.745,�k��,5.5,�L
2018/09/27,12:30,0.752,1.101,0.793,1.396,0.995,0.448,0.781,0.746,�k��,5.9,�L
2018/09/27,12:40,0.751,1.104,0.793,1.395,0.995,0.449,0.781,0.745,�k�k��,6.0,�L
2018/09/27,12:50,0.750,1.102,0.796,1.395,0.996,0.449,0.782,0.745,�k�k��,4.8,�L
2018/09/27,13:00,0.751,1.104,0.793,1.395,0.994,0.450,0.781,0.743,�k��,4.6,�L
2018/09/27,13:10,0.751,1.102,0.793,1.396,0.994,0.448,0.783,0.744,�k��,4.8,�L
2018/09/27,13:20,0.751,1.101,0.792,1.394,0.991,0.449,0.782,0.743,�k��,4.7,�L
2018/09/27,13:30,0.750,1.099,0.793,1.394,0.990,0.448,0.781,0.745,�k��,5.1,�L
2018/09/27,13:40,0.747,1.098,0.791,1.393,0.991,0.448,0.781,0.743,�k�k��,5.4,�L
2018/09/27,13:50,0.749,1.100,0.794,1.393,0.989,0.449,0.780,0.745,�k�k��,4.6,�L
2018/09/27,14:00,0.747,1.099,0.790,1.394,0.991,0.447,0.782,0.746,�k�k��,5.7,�L
2018/09/27,14:10,0.750,1.100,0.793,1.394,0.991,0.448,0.781,0.742,�k��,6.0,�L
2018/09/27,14:20,0.748,1.100,0.793,1.392,0.990,0.446,0.781,0.746,�k�k��,5.0,�L
2018/09/27,14:30,0.749,1.100,0.790,1.395,0.991,0.448,0.781,0.745,�k��,6.9,�L
2018/09/27,14:40,0.750,1.099,0.794,1.393,0.991,0.450,0.782,0.745,�k��,5.9,�L
2018/09/27,14:50,0.751,1.101,0.793,1.396,0.990,0.449,0.782,0.742,�k�k��,7.0,�L
2018/09/27,15:00,0.750,1.104,0.792,1.394,0.991,0.450,0.780,0.743,�k��,6.4,�L
2018/09/27,15:10,0.750,1.102,0.793,1.395,0.991,0.449,0.781,0.744,�k�k��,5.9,�L
2018/09/27,15:20,0.751,1.104,0.794,1.399,0.989,0.450,0.781,0.745,�k�k��,5.3,�L
2018/09/27,15:30,0.751,1.105,0.791,1.397,0.989,0.451,0.783,0.745,�k�k��,6.4,�L
2018/09/27,15:40,0.751,1.104,0.794,1.397,0.991,0.450,0.783,0.744,�k�k��,7.0,�L
2018/09/27,15:50,0.752,1.106,0.793,1.397,0.993,0.451,0.782,0.745,�k�k��,5.6,�L
2018/09/27,16:00,0.752,1.107,0.793,1.398,0.994,0.450,0.784,0.745,�k��,5.9,�L
2018/09/27,16:10,0.753,1.113,0.795,1.400,0.993,0.451,0.785,0.744,�k�k��,5.4,��
2018/09/27,16:20,0.753,1.113,0.794,1.401,0.996,0.451,0.781,0.747,�k�k��,5.7,��
2018/09/27,16:30,0.756,1.115,0.795,1.403,0.995,0.450,0.782,0.748,�k�k��,5.6,��
2018/09/27,16:40,0.756,1.117,0.795,1.404,0.998,0.450,0.784,0.747,�k�k��,6.1,��
2018/09/27,16:50,0.756,1.116,0.796,1.404,0.999,0.450,0.782,0.748,�k�k��,6.2,��
2018/09/27,17:00,0.756,1.119,0.795,1.405,0.999,0.451,0.786,0.749,�k�k��,6.9,��
2018/09/27,17:10,0.755,1.121,0.795,1.404,0.999,0.451,0.783,0.749,�k�k��,6.7,��
2018/09/27,17:20,0.754,1.122,0.796,1.406,1.001,0.450,0.782,0.749,�k�k��,7.3,��
2018/09/27,17:30,0.754,1.121,0.797,1.409,1.000,0.450,0.784,0.748,�k�k��,7.2,��
2018/09/27,17:40,0.756,1.122,0.797,1.409,1.003,0.450,0.784,0.749,�k�k��,5.8,��
2018/09/27,17:50,0.757,1.125,0.795,1.409,1.001,0.451,0.784,0.751,�k�k��,6.7,��
2018/09/27,18:00,0.758,1.124,0.797,1.409,1.002,0.451,0.785,0.749,�k�k��,6.7,��
2018/09/27,18:10,0.757,1.124,0.796,1.412,1.003,0.450,0.785,0.752,�k�k��,5.7,��
2018/09/27,18:20,0.758,1.122,0.794,1.411,1.003,0.451,0.785,0.752,�k�k��,5.8,��
2018/09/27,18:30,0.758,1.123,0.796,1.411,1.004,0.451,0.786,0.751,�k�k��,5.8,��
2018/09/27,18:40,0.756,1.125,0.798,1.409,1.004,0.452,0.786,0.752,�k�k��,6.7,��
2018/09/27,18:50,0.758,1.125,0.796,1.412,1.005,0.451,0.788,0.752,�k�k��,6.8,��
2018/09/27,19:00,0.757,1.126,0.796,1.410,1.006,0.450,0.788,0.752,�k�k��,7.0,��
2018/09/27,19:10,0.758,1.124,0.796,1.412,1.006,0.451,0.787,0.753,�k�k��,6.8,��
2018/09/27,19:20,0.758,1.127,0.798,1.410,1.006,0.450,0.786,0.751,�k�k��,7.1,��
2018/09/27,19:30,0.757,1.127,0.798,1.414,1.006,0.450,0.788,0.752,�k�k��,7.6,��
2018/09/27,19:40,0.758,1.126,0.796,1.412,1.009,0.452,0.787,0.751,�k�k��,8.7,��
2018/09/27,19:50,0.758,1.127,0.796,1.413,1.006,0.452,0.788,0.751,�k�k��,8.6,��
2018/09/27,20:00,0.758,1.129,0.796,1.413,1.007,0.451,0.787,0.752,�k�k��,8.7,��
2018/09/27,20:10,0.755,1.127,0.795,1.413,1.008,0.451,0.787,0.753,�k�k��,8.4,��
2018/09/27,20:20,0.760,1.126,0.797,1.415,1.007,0.452,0.787,0.752,�k�k��,7.9,��
2018/09/27,20:30,0.758,1.126,0.798,1.414,1.007,0.450,0.790,0.751,�k�k��,7.5,��
2018/09/27,20:40,0.757,1.126,0.799,1.413,1.009,0.453,0.789,0.753,�k�k��,8.0,��
2018/09/27,20:50,0.757,1.127,0.798,1.414,1.009,0.452,0.788,0.752,�k�k��,9.3,��
2018/09/27,21:00,0.759,1.127,0.798,1.416,1.009,0.451,0.788,0.751,�k�k��,9.1,��
2018/09/27,21:10,0.759,1.128,0.797,1.418,1.010,0.451,0.788,0.752,�k�k��,10.6,��
2018/09/27,21:20,0.759,1.127,0.798,1.417,1.009,0.450,0.787,0.752,�k�k��,8.4,��
2018/09/27,21:30,0.758,1.128,0.798,1.414,1.011,0.452,0.787,0.752,�k�k��,8.3,��
2018/09/27,21:40,0.761,1.129,0.800,1.417,1.009,0.452,0.788,0.751,�k�k��,8.9,��
2018/09/27,21:50,0.758,1.130,0.799,1.415,1.011,0.451,0.788,0.751,�k�k��,8.9,��
2018/09/27,22:00,0.759,1.127,0.800,1.416,1.009,0.451,0.789,0.753,�k�k��,8.7,��
2018/09/27,22:10,0.757,1.128,0.797,1.418,1.012,0.451,0.790,0.751,�k�k��,8.2,��
2018/09/27,22:20,0.758,1.131,0.797,1.418,1.012,0.451,0.788,0.753,�k�k��,7.1,��
2018/09/27,22:30,0.757,1.127,0.799,1.420,1.012,0.451,0.788,0.753,�k�k��,8.3,��
2018/09/27,22:40,0.761,1.127,0.800,1.417,1.013,0.453,0.788,0.752,�k�k��,6.2,��
2018/09/27,22:50,0.761,1.130,0.800,1.417,1.011,0.450,0.788,0.754,�k�k��,6.8,��
2018/09/27,23:00,0.758,1.132,0.799,1.418,1.010,0.452,0.792,0.751,�k�k��,6.5,��
2018/09/27,23:10,0.759,1.130,0.800,1.420,1.012,0.452,0.789,0.750,�k�k��,6.8,��
2018/09/27,23:20,0.759,1.128,0.798,1.419,1.013,0.452,0.791,0.753,�k�k��,6.7,��
2018/09/27,23:30,0.759,1.131,0.798,1.419,1.012,0.453,0.790,0.752,�k�k��,6.6,��
2018/09/27,23:40,0.759,1.129,0.800,1.422,1.015,0.452,0.790,0.752,�k�k��,6.1,��
2018/09/27,23:50,0.757,1.129,0.798,1.421,1.014,0.453,0.791,0.753,�k�k��,5.2,��
